Overview Statistics Trail Chart Weather Telemetry Raw packets
 

This is the latest recevied weather packets stored in our database for station/object OK5TVR-5. If no packets are shown the sender has not sent any weather packets the latest 10 day(s).

<< 17 18 19 20 21 22 23 >>
Time Temp. Humidity Pressure Rain* Wind** Luminosity Snow
1788285985 18.89° C 54% 1013.3 hPa 0 mm - 0 W/m² -
1788285085 20° C 50% 1013 hPa 0 mm - 1 W/m² -
1788284185 21.11° C 48% 1012.8 hPa 0 mm - 4 W/m² -
1788283293 22.22° C 46% 1012.6 hPa 0 mm - 11 W/m² -
1788282385 21.67° C 45% 1012.7 hPa 0 mm - 19 W/m² -
1788281485 21.67° C 44% 1012.7 hPa 0 mm - 14 W/m² -
1788280585 22.22° C 44% 1012.5 hPa 0 mm - 35 W/m² -
1788279685 23.33° C 42% 1012.5 hPa 0 mm - 47 W/m² -
1788278785 22.78° C 42% 1012.6 hPa 0 mm - 54 W/m² -
1788277905 23.33° C 41% 1012.4 hPa 0 mm - 50 W/m² -
1788276985 22.22° C 43% 1012.5 hPa 0 mm - 72 W/m² -
1788276131 23.89° C 39% 1012.2 hPa 0 mm - 77 W/m² -
1788276085 23.89° C 39% 1012.2 hPa 0 mm - 77 W/m² -
1788275185 23.33° C 42% 1012.3 hPa 0 mm - 79 W/m² -
1788274285 23.33° C 41% 1012.3 hPa 0 mm - 95 W/m² -
1788273385 23.89° C 41% 1012.3 hPa 0 mm - 130 W/m² -
1788272485 23.89° C 41% 1012.4 hPa 0 mm - 123 W/m² -
1788271585 23.89° C 38% 1012.3 hPa 0 mm - 134 W/m² -
1788270689 23.89° C 40% 1012.4 hPa 0 mm - 150 W/m² -
1788269785 23.89° C 42% 1012.5 hPa 0 mm - 136 W/m² -
1788268885 23.89° C 41% 1012.7 hPa 0 mm - 229 W/m² -
1788267863 23.33° C 43% 1012.9 hPa 0 mm - 218 W/m² -
1788266963 23.89° C 41% 1013 hPa 0 mm - 198 W/m² -
1788266070 23.89° C 42% 1012.9 hPa 0 mm - 248 W/m² -
1788265163 22.78° C 45% 1013.2 hPa 0 mm - 110 W/m² -

* Rain latest hour (hover to see other rain measurements)
** Current wind speed in m/s (hover to see current wind gust speed)